This demonstration page uses our WeatherBlox Daily Observations layout. Learn more.

Left ArrowRight Arrow

53.62937, 11.41316

Hourly Observations for July 2, 2016

Temp ( °F °C ) Dew Point ( °F °C ) Humidity (%) Winds ( mph kmh ) Pressure ( in mb ) Visibility ( mi km ) Precip ( " mm )
6:20 am 06:20 Mostly Sunny 66 19 59 15 78 78 S 10 17 29.80 1009 30 48 N/A
6:50 am 06:50 Mostly Sunny 68 20 59 15 73 73 S 8 13 29.80 1009 7 11 N/A
7:20 am 07:20 Mostly Cloudy 66 19 59 15 78 78 SW 7 11 29.80 1009 30 48 N/A
7:50 am 07:50 Mostly Cloudy 68 20 59 15 73 73 SW 9 15 29.77 1008 30 48 N/A
8:20 am 08:20 Mostly Cloudy 66 19 59 15 78 78 WSW 14 22 29.80 1009 30 48 N/A
8:50 am 08:50 Mostly Cloudy 64 18 59 15 83 83 W 12 19 29.80 1009 30 48 N/A
9:20 am 09:20 Mostly Cloudy with Light Rain 63 17 57 14 83 83 W 13 20 29.80 1009 30 48 N/A
9:50 am 09:50 Mostly Cloudy with Light Rain 61 16 59 15 94 94 WSW 12 19 29.83 1010 30 48 N/A
10:20 am 10:20 Mostly Cloudy with Light Rain 61 16 59 15 94 94 SW 10 17 29.83 1010 6 9 N/A
10:50 am 10:50 Mostly Cloudy with Light Rain 61 16 59 15 94 94 SW 13 20 29.83 1010 30 48 N/A
11:20 am 11:20 Mostly Cloudy 61 16 59 15 94 94 WSW 15 24 29.85 1011 30 48 N/A
11:50 am 11:50 Mostly Cloudy 63 17 57 14 83 83 WSW 14 22 29.85 1011 30 48 N/A
12:20 pm 12:20 Mostly Cloudy 63 17 57 14 83 83 WSW 15 24 29.85 1011 30 48 N/A
12:50 pm 12:50 Cloudy 63 17 55 13 77 77 WSW 15 24 29.85 1011 30 48 N/A
1:20 pm 13:20 Cloudy 63 17 55 13 77 77 WSW 15 24 29.88 1012 30 48 N/A
1:50 pm 13:50 Mostly Cloudy 63 17 55 13 77 77 W 12 19 29.85 1011 30 48 N/A
2:20 pm 14:20 Cloudy 63 17 54 12 73 73 W 10 17 29.88 1012 30 48 N/A
2:50 pm 14:50 Mostly Cloudy 63 17 54 12 73 73 WSW 10 17 29.88 1012 30 48 N/A
3:20 pm 15:20 Mostly Cloudy 63 17 54 12 73 73 WSW 9 15 29.85 1011 30 48 N/A
3:50 pm 15:50 Mostly Cloudy 63 17 54 12 73 73 SW 12 19 29.88 1012 30 48 N/A
4:20 pm 16:20 Cloudy 63 17 54 12 73 73 WSW 13 20 29.88 1012 30 48 N/A
4:50 pm 16:50 Mostly Cloudy 64 18 52 11 64 64 WSW 14 22 29.88 1012 30 48 N/A
5:20 pm 17:20 Mostly Cloudy 66 19 52 11 60 60 WSW 12 19 29.88 1012 30 48 N/A
5:50 pm 17:50 Mostly Cloudy 66 19 52 11 60 60 SW 12 19 29.88 1012 30 48 N/A
6:16 pm 18:16 Mostly Cloudy with Showers 59 15 50 10 72 72 W 25 41 29.91 1013 30 48 N/A
6:20 pm 18:20 Mostly Cloudy with Showers 63 17 50 10 64 64 WSW 13 20 29.91 1013 5 8 N/A
6:28 pm 18:28 Mostly Cloudy with Light Showers 55 13 52 11 88 88 WNW 14 22 29.91 1013 5 8 N/A
6:50 pm 18:50 Mostly Cloudy 57 14 54 12 88 88 WNW 7 11 29.91 1013 30 48 N/A
7:20 pm 19:20 Mostly Sunny 59 15 52 11 77 77 NW 5 7 29.91 1013 7 11 N/A
7:50 pm 19:50 Mostly Sunny 59 15 52 11 77 77 WNW 3 6 29.91 1013 7 11 N/A
8:20 pm 20:20 Mostly Sunny 59 15 54 12 82 82 WSW 5 7 29.94 1014 7 11 N/A

Powered by AerisWeather